GW3324 Weather Reports


time (UTC)temp
F
wind
direction
speed
knots
gust
knots
rain 1hr
in
rain 24hr
in
rain mn
in
humidity
%
barometer
mb
20260905205013 96 252 2.6 6.1 0.00 0.22 0.22 46 1012.1
20260905204520 97 57 1.7 7.0 0.00 0.22 0.22 46 1012.2
20260905204013 96 302 0.9 7.0 0.00 0.22 0.22 48 1012.2
20260905203514 95 289 0.9 5.2 0.00 0.22 0.22 49 1012.2
20260905203025 96 110 1.7 5.2 0.00 0.22 0.22 47 1012.3
20260905202515 96 30 0.0 5.2 0.00 0.22 0.22 47 1012.4
20260905202003 96 82 0.9 7.8 0.00 0.22 0.22 45 1012.5
20260905201505 96 300 1.7 7.8 0.00 0.22 0.22 47 1012.6
20260905201003 96 265 3.5 7.8 0.00 0.22 0.22 46 1012.6
20260905200507 96 284 0.9 5.2 0.00 0.22 0.22 48 1012.7
20260905200013 95 130 0.9 5.2 0.00 0.22 0.22 48 1012.7
20260905195509 96 128 0.9 6.1 0.00 0.22 0.22 47 1012.7
20260905195009 96 304 1.7 6.1 0.00 0.22 0.22 46 1012.9
20260905194517 97 92 2.6 8.7 0.00 0.22 0.22 45 1012.9
20260905194011 97 301 2.6 8.7 0.00 0.22 0.22 45 1013.1
20260905193516 96 282 1.7 6.1 0.00 0.22 0.22 46 1013.1
20260905193020 96 284 1.7 6.1 0.00 0.22 0.22 46 1013.2
20260905192518 96 97 1.7 4.3 0.00 0.22 0.22 47 1013.3
20260905192015 96 252 2.6 4.3 0.00 0.22 0.22 46 1013.2
20260905191529 95 344 1.7 3.5 0.00 0.22 0.22 49 1013.3
20260905191017 95 200 0.0 2.6 0.00 0.22 0.22 47 1013.4
20260905190517 95 215 0.0 5.2 0.00 0.22 0.22 47 1013.5
20260905190010 95 29 0.0 6.1 0.00 0.22 0.22 47 1013.6
20260905185507 95 263 1.7 6.1 0.00 0.22 0.22 48 1013.6
20260905185009 94 301 2.6 6.1 0.00 0.22 0.22 47 1013.7
20260905184513 94 182 2.6 6.1 0.00 0.22 0.22 50 1013.7
20260905184010 93 152 0.9 6.1 0.00 0.22 0.22 47 1013.7
20260905183512 93 277 2.6 6.1 0.00 0.22 0.22 49 1013.7
20260905183019 93 225 1.7 5.2 0.00 0.22 0.22 49 1014.0
20260905182514 94 138 0.9 5.2 0.00 0.22 0.22 48 1014.0
20260905182012 93 277 1.7 5.2 0.00 0.22 0.22 50 1014.1
20260905181534 93 248 0.0 5.2 0.00 0.22 0.22 51 1014.2
20260905181015 93 211 2.6 5.2 0.00 0.22 0.22 54 1014.2
20260905180516 92 115 1.7 3.5 0.00 0.22 0.22 52 1014.2
20260905180028 93 202 1.7 5.2 0.00 0.22 0.22 50 1014.3
20260905175519 92 31 1.7 5.2 0.00 0.22 0.22 51 1014.3
20260905175018 92 285 0.0 3.5 0.00 0.22 0.22 50 1014.4
20260905174512 91 228 0.9 3.5 0.00 0.22 0.22 54 1014.4
20260905174006 91 280 0.9 7.0 0.00 0.22 0.22 50 1014.4
20260905173509 91 211 1.7 7.0 0.00 0.22 0.22 56 1014.4
20260905173016 90 198 0.9 7.0 0.00 0.22 0.22 54 1014.5
20260905172512 90 111 1.7 7.0 0.00 0.22 0.22 54 1014.5
20260905172016 90 277 2.6 6.1 0.00 0.22 0.22 57 1014.4
20260905171526 89 96 3.5 6.1 0.00 0.22 0.22 54 1014.5
20260905171014 89 81 0.9 5.2 0.00 0.22 0.22 56 1014.5
20260905170515 89 26 0.9 4.3 0.00 0.22 0.22 55 1014.6
20260905170027 88 288 1.7 4.3 0.00 0.22 0.22 56 1014.8
20260905165520 88 292 0.9 6.1 0.00 0.22 0.22 56 1014.9
20260905165016 88 81 2.6 7.0 0.00 0.22 0.22 55 1015.1
20260905164532 89 75 1.7 7.0 0.00 0.22 0.22 57 1015.3
20260905164018 89 328 0.0 4.3 0.00 0.22 0.22 58 1015.4
20260905163519 88 232 0.9 4.3 0.00 0.22 0.22 58 1015.3
20260905163035 88 233 0.9 3.5 0.00 0.22 0.22 62 1015.4
20260905162511 87 211 0.9 5.2 0.00 0.22 0.22 58 1015.4
20260905162011 87 37 0.9 5.2 0.00 0.22 0.22 58 1015.3
20260905161520 87 138 0.9 4.3 0.00 0.22 0.22 61 1015.3
20260905161014 86 301 0.9 4.3 0.00 0.22 0.22 60 1015.2
20260905160515 86 86 0.0 5.2 0.00 0.22 0.22 62 1015.2
20260905160039 85 228 2.6 5.2 0.00 0.22 0.22 62 1015.3
20260905155517 85 146 1.7 5.2 0.00 0.22 0.22 63 1015.3
20260905155014 85 119 0.9 7.0 0.00 0.22 0.22 64 1015.3
20260905154530 84 155 0.9 7.0 0.00 0.22 0.22 63 1015.4
20260905154018 84 178 2.6 5.2 0.00 0.22 0.22 66 1015.5
20260905153517 83 206 1.7 5.2 0.00 0.22 0.22 67 1015.6
20260905153038 83 339 0.9 4.3 0.00 0.22 0.22 67 1015.4
20260905152519 82 63 1.7 5.2 0.00 0.22 0.22 68 1015.3
20260905152019 82 71 0.9 6.1 0.00 0.22 0.22 70 1015.3
20260905151533 81 176 1.7 6.1 0.00 0.22 0.22 73 1015.4
20260905151013 81 41 0.9 4.3 0.00 0.22 0.22 70 1015.3
20260905150510 80 54 0.0 7.8 0.00 0.22 0.22 72 1015.3
20260905150023 80 74 2.6 7.8 0.00 0.22 0.22 72 1015.5
20260905145516 79 83 0.9 7.0 0.00 0.22 0.22 75 1015.6
20260905145016 79 204 1.7 7.0 0.00 0.22 0.22 76 1015.7
20260905144534 79 69 0.9 8.7 0.00 0.22 0.22 76 1015.7
20260905144016 78 69 1.7 8.7 0.00 0.22 0.22 75 1015.8
20260905143516 78 209 1.7 8.7 0.00 0.22 0.22 76 1015.8
20260905143047 78 88 2.6 8.7 0.00 0.22 0.22 76 1015.8
20260905142517 77 76 0.9 7.8 0.00 0.22 0.22 78 1015.7
20260905142018 77 94 1.7 7.8 0.00 0.22 0.22 78 1015.8
20260905141534 77 100 2.6 7.8 0.00 0.22 0.22 78 1015.8
20260905141017 76 66 1.7 11.3 0.00 0.22 0.22 82 1015.8
20260905140504 76 51 3.5 11.3 0.00 0.22 0.22 80 1015.8
20260905140003 76 101 6.1 11.3 0.00 0.22 0.22 80 1015.9
20260905135504 76 87 2.6 7.8 0.00 0.22 0.22 81 1016.1
20260905135004 76 72 2.6 7.8 0.00 0.22 0.22 81 1016.3
20260905134503 77 77 3.5 7.0 0.00 0.22 0.22 82 1016.1
20260905134003 76 102 3.5 7.8 0.00 0.22 0.22 84 1016.2
20260905133503 76 67 4.3 10.4 0.00 0.22 0.22 83 1016.4
20260905133004 76 67 2.6 10.4 0.00 0.22 0.22 84 1016.3
20260905132503 75 90 6.1 10.4 0.00 0.22 0.22 85 1016.3
20260905132003 75 74 5.2 14.8 0.00 0.22 0.22 85 1016.3
20260905131504 75 60 3.5 14.8 0.00 0.22 0.22 87 1016.2
20260905131004 74 70 5.2 12.2 0.00 0.22 0.22 88 1016.2
20260905130504 74 84 6.1 11.3 0.00 0.22 0.22 88 1016.1
20260905130003 74 83 5.2 10.4 0.00 0.22 0.22 89 1016.2
20260905125505 74 97 5.2 10.4 0.00 0.22 0.22 89 1016.4
20260905125003 74 87 2.6 9.6 0.00 0.22 0.22 89 1016.6
20260905124505 74 114 3.5 10.4 0.00 0.22 0.22 89 1016.5
20260905124003 74 109 2.6 10.4 0.00 0.22 0.22 89 1016.5
20260905123503 73 93 3.5 10.4 0.00 0.22 0.22 90 1016.3
20260905123004 73 76 4.3 10.4 0.00 0.22 0.22 90 1016.2
20260905122506 73 71 3.5 7.8 0.00 0.22 0.22 91 1015.6
20260905122004 73 214 0.0 2.6 0.00 0.22 0.22 91 1015.5
20260905121504 73 205 0.0 1.7 0.00 0.22 0.22 91 1015.4
20260905121005 73 286 0.0 1.7 0.00 0.22 0.22 91 1015.4
20260905120503 73 300 0.0 2.6 0.00 0.22 0.22 91 1015.3
20260905120004 73 19 0.0 7.8 0.00 0.22 0.22 91 1015.3
20260905115504 73 130 0.0 7.8 0.00 0.22 0.22 91 1015.3
20260905115004 73 70 0.9 5.2 0.00 0.22 0.22 92 1015.3
20260905114506 73 86 1.7 6.1 0.00 0.22 0.22 91 1015.4
20260905114003 73 67 0.9 7.0 0.00 0.22 0.22 91 1015.3
20260905113504 73 80 2.6 7.0 0.00 0.22 0.22 91 1015.3
20260905113004 73 90 1.7 5.2 0.00 0.22 0.22 91 1015.0
20260905112504 73 58 2.6 5.2 0.00 0.22 0.22 91 1014.7
20260905112003 74 94 0.9 4.3 0.00 0.22 0.22 91 1014.7
20260905111504 74 69 0.0 7.8 0.00 0.22 0.22 91 1014.7
20260905111004 74 71 2.6 7.8 0.00 0.22 0.22 91 1014.9
20260905110503 74 71 0.9 5.2 0.00 0.22 0.22 92 1014.8
20260905110004 74 75 1.7 5.2 0.00 0.22 0.22 92 1014.9
20260905105506 74 192 0.9 5.2 0.00 0.22 0.22 92 1014.8
20260905105005 74 94 1.7 7.0 0.00 0.22 0.22 92 1014.9
20260905104510 74 80 2.6 8.7 0.00 0.22 0.22 93 1014.9
20260905104005 75 121 4.3 8.7 0.00 0.22 0.22 93 1014.5
20260905103503 75 71 0.9 2.6 0.00 0.22 0.22 94 1014.1
20260905103013 75 132 0.0 0.9 0.00 0.22 0.22 94 1014.0
20260905102503 75 132 0.0 0.9 0.00 0.22 0.22 94 1013.9
20260905102004 75 132 0.0 0.9 0.00 0.22 0.22 93 1013.8
20260905101505 75 123 0.0 0.9 0.00 0.22 0.22 93 1013.8
20260905101003 75 119 0.0 0.9 0.00 0.22 0.22 93 1014.0
20260905100506 75 119 0.0 0.9 0.01 0.22 0.22 93 1014.0
20260905100017 75 119 0.0 0.9 0.01 0.22 0.22 93 1014.0
20260905095506 75 119 0.0 0.9 0.01 0.22 0.22 93 1014.1
20260905095006 75 119 0.0 1.7 0.01 0.22 0.22 93 1014.2
20260905094511 75 119 0.0 1.7 0.01 0.22 0.22 93 1014.1
20260905094005 75 201 0.0 0.9 0.01 0.22 0.22 93 1014.0
20260905093509 75 201 0.0 0.9 0.01 0.22 0.22 93 1014.0
20260905093006 75 201 0.0 0.9 0.01 0.22 0.22 92 1014.0
20260905092505 75 201 0.0 1.7 0.01 0.22 0.22 92 1013.8
20260905092003 75 202 0.0 1.7 0.01 0.22 0.22 91 1013.6
20260905091509 76 178 0.0 2.6 0.01 0.22 0.22 91 1013.7
20260905091006 76 243 1.7 3.5 0.12 0.22 0.22 91 1013.6
20260905090506 76 107 0.9 3.5 0.21 0.21 0.21 91 1013.8
20260905090003 76 9 0.0 1.7 0.21 0.21 0.21 92 1013.9
20260905085508 76 9 0.0 1.7 0.21 0.21 0.21 92 1013.9
20260905085006 76 9 0.0 1.7 0.21 0.21 0.21 92 1013.8
20260905084510 76 233 0.0 4.3 0.21 0.21 0.21 92 1013.7
20260905084008 76 24 0.9 4.3 0.21 0.21 0.21 91 1013.8
20260905083507 76 233 0.0 1.7 0.21 0.21 0.21 90 1013.4
20260905083008 76 233 0.0 2.6 0.21 0.21 0.21 89 1013.5
20260905082507 77 236 0.9 5.2 0.21 0.21 0.21 88 1013.5
20260905082008 77 90 0.9 13.0 0.21 0.21 0.21 86 1013.6
20260905081512 78 109 4.3 13.0 0.21 0.21 0.21 84 1013.6
20260905081009 79 34 7.0 13.0 0.10 0.10 0.10 86 1014.0
20260905080508 79 281 0.0 3.5 0.00 0.00 0.00 83 1013.6
20260905080010 79 295 0.9 3.5 0.00 0.00 0.00 84 1013.6
20260905075508 78 298 2.6 3.5 0.00 0.00 0.00 85 1013.6
20260905075008 78 176 0.0 0.0 0.00 0.00 0.00 85 1013.6
20260905074506 78 176 0.0 0.0 0.00 0.00 0.00 85 1013.5
20260905074011 78 176 0.0 0.0 0.00 0.00 0.00 84 1013.6
20260905073506 78 176 0.0 0.0 0.00 0.00 0.00 84 1013.6
20260905073017 78 176 0.0 0.0 0.00 0.00 0.00 84 1013.6
20260905072509 78 176 0.0 0.0 0.00 0.00 0.00 84 1013.7
20260905072009 78 176 0.0 0.0 0.00 0.00 0.00 84 1013.6
20260905071513 78 176 0.0 0.0 0.00 0.00 0.00 84 1013.7
20260905071009 78 176 0.0 0.0 0.00 0.00 0.00 84 1013.8
20260905070511 79 176 0.0 0.0 0.00 0.00 0.00 84 1013.9
20260905070017 79 176 0.0 0.0 0.00 0.00 0.00 84 1014.0
20260905065511 79 176 0.0 0.0 0.00 0.00 0.00 84 1014.0
20260905065010 79 176 0.0 0.0 0.00 0.00 0.00 84 1014.0
20260905064526 79 176 0.0 0.0 0.00 0.00 0.00 84 1014.0
20260905064012 79 176 0.0 0.9 0.00 0.00 0.00 84 1014.1
20260905063509 79 176 0.0 0.9 0.00 0.00 0.00 84 1014.2
20260905063012 79 107 0.0 0.9 0.00 0.00 0.00 84 1014.3
20260905062511 79 107 0.0 0.0 0.00 0.00 0.00 83 1014.4
20260905062011 79 107 0.0 0.0 0.00 0.00 0.00 83 1014.4
20260905061516 79 107 0.0 0.0 0.00 0.00 0.00 83 1014.5
20260905061011 79 107 0.0 0.0 0.00 0.00 0.00 83 1014.5
20260905060511 79 107 0.0 0.9 0.00 0.00 0.00 83 1014.5
20260905060027 79 107 0.0 0.9 0.00 0.00 0.00 84 1014.4
20260905055512 79 107 0.0 0.9 0.00 0.00 0.00 84 1014.6
20260905055012 79 107 0.0 0.0 0.00 0.00 0.00 84 1014.5
20260905054516 79 107 0.0 0.0 0.00 0.00 0.00 83 1014.6
20260905054010 80 107 0.0 0.0 0.00 0.00 0.00 83 1014.6
20260905053512 80 107 0.0 0.0 0.00 0.00 0.00 83 1014.7
20260905053029 80 107 0.0 0.0 0.00 0.00 0.00 83 1014.6
20260905052517 80 107 0.0 0.0 0.00 0.00 0.00 82 1014.6
20260905052012 80 107 0.0 0.9 0.00 0.00 0.00 82 1014.6
20260905051512 80 107 0.0 0.9 0.00 0.00 0.00 82 1014.5
20260905051013 80 106 0.0 0.9 0.00 0.00 0.00 82 1014.5
20260905050510 80 106 0.0 0.0 0.00 0.00 0.00 81 1014.7
20260905050020 80 106 0.0 0.0 0.00 0.00 0.00 81 1014.7
20260905045506 80 106 0.0 0.0 0.00 0.00 0.00 80 1014.7
20260905045005 80 106 0.0 0.0 0.00 0.00 0.00 80 1014.8
20260905044503 81 106 0.0 0.0 0.00 0.00 0.00 80 1014.9
20260905044003 81 106 0.0 0.0 0.00 0.00 0.00 80 1014.6
20260905043504 81 106 0.0 0.9 0.00 0.00 0.00 79 1014.6
20260905043006 81 106 0.0 0.9 0.00 0.00 0.00 79 1014.7
20260905042505 81 106 0.0 0.0 0.00 0.00 0.00 79 1014.7
20260905042006 81 106 0.0 0.0 0.00 0.00 0.00 79 1014.6
20260905041510 81 106 0.0 0.0 0.00 0.00 0.00 78 1014.8
20260905041008 81 106 0.0 0.0 0.00 0.00 0.00 78 1014.7
20260905040509 81 106 0.0 0.0 0.00 0.00 0.00 78 1014.7
20260905040019 82 106 0.0 0.9 0.00 0.00 0.00 77 1014.7
20260905035514 82 106 0.0 0.9 0.00 0.00 0.00 77 1014.8
20260905035012 82 106 0.0 1.7 0.00 0.00 0.00 77 1014.7
20260905034525 82 106 0.0 1.7 0.00 0.00 0.00 77 1014.8
20260905034003 82 181 0.0 0.0 0.00 0.00 0.00 77 1014.7
20260905033505 82 181 0.0 0.0 0.00 0.00 0.00 77 1014.7
20260905033004 82 181 0.0 0.0 0.00 0.00 0.00 76 1014.8
20260905032506 82 182 0.0 0.0 0.00 0.00 0.00 76 1014.8
20260905032007 82 182 0.0 0.9 0.00 0.00 0.00 76 1014.7
20260905031510 82 181 0.0 1.7 0.00 0.00 0.00 76 1014.9
20260905031007 82 180 0.0 1.7 0.00 0.00 0.00 76 1015.0
20260905030507 83 142 0.0 0.0 0.00 0.00 0.00 76 1015.0
20260905030013 83 142 0.0 0.0 0.00 0.00 0.00 75 1014.9
20260905025511 83 138 0.0 0.9 0.00 0.00 0.00 75 1014.9
20260905025010 83 138 0.0 0.9 0.00 0.00 0.00 74 1015.0
20260905024530 83 138 0.0 0.9 0.00 0.00 0.00 74 1014.9
20260905024012 83 217 0.0 0.0 0.00 0.00 0.00 74 1014.9
20260905023514 83 217 0.0 0.0 0.00 0.00 0.00 74 1014.8
20260905023025 84 217 0.0 0.0 0.00 0.00 0.00 73 1014.8
20260905022504 84 217 0.0 0.0 0.00 0.00 0.00 73 1014.7
20260905022004 84 217 0.0 0.0 0.00 0.00 0.00 73 1014.7
20260905021507 84 217 0.0 0.0 0.00 0.00 0.00 72 1014.8
20260905021005 84 217 0.0 0.9 0.00 0.00 0.00 72 1014.8
20260905020508 84 217 0.0 0.9 0.00 0.00 0.00 71 1014.8
20260905020020 84 217 0.0 0.0 0.00 0.00 0.00 71 1014.7
20260905015509 85 217 0.0 0.0 0.00 0.00 0.00 71 1014.7
20260905015013 85 217 0.0 0.0 0.00 0.00 0.00 71 1014.8
20260905014516 85 217 0.0 0.0 0.00 0.00 0.00 71 1014.6
20260905014010 85 217 0.0 0.9 0.00 0.00 0.00 70 1014.5
20260905013515 85 217 0.0 0.9 0.00 0.00 0.00 70 1014.5
20260905013027 85 169 0.0 0.9 0.00 0.00 0.00 70 1014.4
20260905012514 85 169 0.0 0.9 0.00 0.00 0.00 70 1014.3
20260905012016 85 169 0.0 0.9 0.00 0.00 0.00 70 1014.2
20260905011528 86 209 0.0 0.0 0.00 0.00 0.00 69 1014.1
20260905011005 86 209 0.0 0.9 0.00 0.00 0.00 69 1014.0
20260905010506 86 209 0.0 0.9 0.00 0.00 0.00 68 1014.1
20260905010009 86 209 0.0 0.9 0.00 0.00 0.00 68 1014.1
20260905005507 86 209 0.0 0.9 0.00 0.00 0.00 67 1014.1
20260905005013 86 209 0.0 0.9 0.00 0.00 0.00 67 1014.0
20260905004516 87 209 0.0 0.9 0.00 0.00 0.00 66 1014.0
20260905004010 87 209 0.0 0.9 0.00 0.00 0.00 65 1014.0
20260905003511 87 209 0.0 0.0 0.00 0.00 0.00 65 1014.0
20260905003020 88 209 0.0 0.0 0.00 0.00 0.00 64 1014.0
20260905002515 88 209 0.0 0.9 0.00 0.00 0.00 63 1013.9
20260905002017 88 209 0.0 1.7 0.00 0.00 0.00 64 1013.8
20260905001525 88 210 0.0 1.7 0.00 0.00 0.00 62 1013.7
20260905001015 89 194 0.0 0.9 0.00 0.00 0.00 60 1013.8
20260905000518 90 129 0.0 0.0 0.00 0.00 0.00 60 1013.8
20260905000034 90 129 0.0 0.0 0.00 0.00 0.00 59 1013.8
20260904235518 91 129 0.0 0.0 0.00 0.00 0.00 59 1013.8
20260904235006 91 129 0.0 0.0 0.00 0.00 0.00 58 1013.7
20260904234510 91 129 0.0 0.0 0.00 0.00 0.00 56 1013.8
20260904234009 92 129 0.0 0.0 0.00 0.00 0.00 55 1013.8
20260904233510 92 129 0.0 0.9 0.00 0.00 0.00 53 1013.8
20260904233016 93 129 0.0 0.9 0.00 0.00 0.00 54 1013.8
20260904232511 93 101 0.0 0.9 0.00 0.00 0.00 53 1013.9
20260904232013 93 73 0.0 0.9 0.00 0.00 0.00 51 1014.0
20260904231526 94 72 0.0 2.6 0.00 0.00 0.00 52 1013.9
20260904231015 94 74 0.0 2.6 0.00 0.00 0.00 49 1014.0
20260904230517 94 90 0.9 1.7 0.00 0.00 0.00 48 1013.9
20260904230032 95 96 0.0 1.7 0.00 0.00 0.00 52 1014.0
20260904225514 95 153 0.0 1.7 0.00 0.00 0.00 48 1014.0
20260904225013 95 100 0.9 1.7 0.00 0.00 0.00 46 1014.1
20260904224532 96 334 0.0 1.7 0.00 0.00 0.00 48 1014.2
20260904224018 96 126 0.9 4.3 0.00 0.00 0.00 47 1014.3
20260904223507 96 293 0.9 4.3 0.00 0.00 0.00 46 1014.3
20260904223022 96 302 1.7 4.3 0.00 0.00 0.00 47 1014.3
20260904222517 96 246 1.7 4.3 0.00 0.00 0.00 47 1014.3
20260904222012 96 275 1.7 4.3 0.00 0.00 0.00 46 1014.3
20260904221523 96 38 0.9 5.2 0.00 0.00 0.00 47 1014.3
20260904221012 96 62 1.7 5.2 0.00 0.00 0.00 47 1014.3
20260904220517 97 96 0.9 3.5 0.00 0.00 0.00 47 1014.3
20260904220026 97 311 0.9 3.5 0.00 0.00 0.00 47 1014.2
20260904215517 97 276 0.9 3.5 0.00 0.00 0.00 46 1014.3
20260904215021 98 319 0.9 2.6 0.00 0.00 0.00 46 1014.2
20260904214529 98 331 0.9 2.6 0.00 0.00 0.00 46 1014.3
20260904214017 98 309 0.9 6.1 0.00 0.00 0.00 46 1014.3
20260904213520 98 267 0.9 6.1 0.00 0.00 0.00 44 1014.4
20260904213033 98 292 1.7 6.1 0.00 0.00 0.00 46 1014.4
20260904212519 99 129 0.9 4.3 0.00 0.00 0.00 45 1014.3
20260904212008 99 109 0.9 6.1 0.00 0.00 0.00 46 1014.4
20260904211519 99 323 1.7 6.1 0.00 0.00 0.00 44 1014.4
20260904211014 99 288 1.7 6.1 0.00 0.00 0.00 45 1014.5
20260904210515 98 332 1.7 6.1 0.00 0.00 0.00 45 1014.5
20260904210029 98 333 0.9 7.8 0.00 0.00 0.00 46 1014.5
20260904205518 97 5 2.6 7.8 0.00 0.00 0.00 47 1014.5